Year,Month,Day,Hour,Minute,Value (Times are PST for temperature in C)
2013,10,28,00,00,11.90
2013,10,28,00,01,11.90
2013,10,28,00,02,12.00
2013,10,28,00,03,12.00
2013,10,28,00,04,12.10
2013,10,28,00,05,12.10
2013,10,28,00,06,12.10
2013,10,28,00,07,12.10
2013,10,28,00,08,12.10
2013,10,28,00,09,12.20
2013,10,28,00,10,12.20
2013,10,28,00,11,12.20
2013,10,28,00,12,12.30
2013,10,28,00,13,12.30
2013,10,28,00,14,12.30
2013,10,28,00,15,12.30
2013,10,28,00,16,12.30
2013,10,28,00,17,12.30
2013,10,28,00,18,12.40
2013,10,28,00,19,12.40
2013,10,28,00,20,12.40
2013,10,28,00,21,12.40
2013,10,28,00,22,12.40
2013,10,28,00,23,12.30
2013,10,28,00,24,12.30
2013,10,28,00,25,12.30
2013,10,28,00,26,12.20
2013,10,28,00,27,12.10
2013,10,28,00,28,12.10
2013,10,28,00,29,12.00
2013,10,28,00,30,11.90
2013,10,28,00,31,11.80
2013,10,28,00,32,11.70
2013,10,28,00,33,11.60
2013,10,28,00,34,11.40
2013,10,28,00,35,11.20
2013,10,28,00,36,11.10
2013,10,28,00,37,10.90
2013,10,28,00,38,10.80
2013,10,28,00,39,10.60
2013,10,28,00,40,10.30
2013,10,28,00,41,10.20
2013,10,28,00,42,10.00
2013,10,28,00,43,9.90
2013,10,28,00,44,9.80
2013,10,28,00,45,9.60
2013,10,28,00,46,9.50
2013,10,28,00,47,9.40
2013,10,28,00,48,9.30
2013,10,28,00,49,9.20
2013,10,28,00,50,9.00
2013,10,28,00,51,8.90
2013,10,28,00,52,8.80
2013,10,28,00,53,8.70
2013,10,28,00,54,8.70
2013,10,28,00,55,8.60
2013,10,28,00,56,8.50
2013,10,28,00,57,8.40
2013,10,28,00,58,8.30
2013,10,28,00,59,8.20
2013,10,28,01,00,8.10
2013,10,28,01,01,8.00
2013,10,28,01,02,8.00
2013,10,28,01,03,7.90
2013,10,28,01,04,7.80
2013,10,28,01,05,7.80
2013,10,28,01,06,7.80
2013,10,28,01,07,7.70
2013,10,28,01,08,7.70
2013,10,28,01,09,7.70
2013,10,28,01,10,7.70
2013,10,28,01,11,7.70
2013,10,28,01,12,7.70
2013,10,28,01,13,7.70
2013,10,28,01,14,7.70
2013,10,28,01,15,7.70
2013,10,28,01,16,7.70
2013,10,28,01,17,7.70
2013,10,28,01,18,7.70
2013,10,28,01,19,7.80
2013,10,28,01,20,7.80
2013,10,28,01,21,7.90
2013,10,28,01,22,8.00
2013,10,28,01,23,8.00
2013,10,28,01,24,8.10
2013,10,28,01,25,8.10
2013,10,28,01,26,8.20
2013,10,28,01,27,8.20
2013,10,28,01,28,8.20
2013,10,28,01,29,8.30
2013,10,28,01,30,8.30
2013,10,28,01,31,8.30
2013,10,28,01,32,8.30
2013,10,28,01,33,8.30
2013,10,28,01,34,8.30
2013,10,28,01,35,8.30
2013,10,28,01,36,8.30
2013,10,28,01,37,8.40
2013,10,28,01,38,8.40
2013,10,28,01,39,8.50
2013,10,28,01,40,8.50
2013,10,28,01,41,8.60
2013,10,28,01,42,8.60
2013,10,28,01,43,8.70
2013,10,28,01,44,8.70
2013,10,28,01,45,8.70
2013,10,28,01,46,8.80
2013,10,28,01,47,8.80
2013,10,28,01,48,8.80
2013,10,28,01,49,8.80
2013,10,28,01,50,8.80
2013,10,28,01,51,8.70
2013,10,28,01,52,8.70
2013,10,28,01,53,8.70
2013,10,28,01,54,8.70
2013,10,28,01,55,8.70
2013,10,28,01,56,8.70
2013,10,28,01,57,8.70
2013,10,28,01,58,8.70
2013,10,28,01,59,8.70
2013,10,28,02,00,8.70
2013,10,28,02,01,8.70
2013,10,28,02,02,8.70
2013,10,28,02,03,8.70
2013,10,28,02,04,8.70
2013,10,28,02,05,8.70
2013,10,28,02,06,8.70
2013,10,28,02,07,8.70
2013,10,28,02,08,8.70
2013,10,28,02,09,8.70
2013,10,28,02,10,8.80
2013,10,28,02,11,8.70
2013,10,28,02,12,8.70
2013,10,28,02,13,8.70
2013,10,28,02,14,8.70
2013,10,28,02,15,8.70
2013,10,28,02,16,8.70
2013,10,28,02,17,8.80
2013,10,28,02,18,8.90
2013,10,28,02,19,9.00
2013,10,28,02,20,9.20
2013,10,28,02,21,9.40
2013,10,28,02,22,9.60
2013,10,28,02,23,9.70
2013,10,28,02,24,9.80
2013,10,28,02,25,9.80
2013,10,28,02,26,9.80
2013,10,28,02,27,9.70
2013,10,28,02,28,9.60
2013,10,28,02,29,9.50
2013,10,28,02,30,9.40
2013,10,28,02,31,9.30
2013,10,28,02,32,9.40
2013,10,28,02,33,9.50
2013,10,28,02,34,9.70
2013,10,28,02,35,9.80
2013,10,28,02,36,9.80
2013,10,28,02,37,9.80
2013,10,28,02,38,9.70
2013,10,28,02,39,9.60
2013,10,28,02,40,9.50
2013,10,28,02,41,9.30
2013,10,28,02,42,9.20
2013,10,28,02,43,9.00
2013,10,28,02,44,8.90
2013,10,28,02,45,8.80
2013,10,28,02,46,8.70
2013,10,28,02,47,8.70
2013,10,28,02,48,8.80
2013,10,28,02,49,8.80
2013,10,28,02,50,8.70
2013,10,28,02,51,8.60
2013,10,28,02,52,8.50
2013,10,28,02,53,8.40
2013,10,28,02,54,8.60
2013,10,28,02,55,8.70
2013,10,28,02,56,8.80
2013,10,28,02,57,8.80
2013,10,28,02,58,8.80
2013,10,28,02,59,8.70
2013,10,28,03,00,8.60
2013,10,28,03,01,8.60
2013,10,28,03,02,8.60
2013,10,28,03,03,8.80
2013,10,28,03,04,8.90
2013,10,28,03,05,9.00
2013,10,28,03,06,9.00
2013,10,28,03,07,9.10
2013,10,28,03,08,9.30
2013,10,28,03,09,9.50
2013,10,28,03,10,9.70
2013,10,28,03,11,9.80
2013,10,28,03,12,9.80
2013,10,28,03,13,9.90
2013,10,28,03,14,10.00
2013,10,28,03,15,10.00
2013,10,28,03,16,10.10
2013,10,28,03,17,10.10
2013,10,28,03,18,10.10
2013,10,28,03,19,10.10
2013,10,28,03,20,10.10
2013,10,28,03,21,10.00
2013,10,28,03,22,10.00
2013,10,28,03,23,9.90
2013,10,28,03,24,9.80
2013,10,28,03,25,9.70
2013,10,28,03,26,9.60
2013,10,28,03,27,9.50
2013,10,28,03,28,9.40
2013,10,28,03,29,9.50
2013,10,28,03,30,9.40
2013,10,28,03,31,9.30
2013,10,28,03,32,9.20
2013,10,28,03,33,9.10
2013,10,28,03,34,9.00
2013,10,28,03,35,8.90
2013,10,28,03,36,8.80
2013,10,28,03,37,8.80
2013,10,28,03,38,8.70
2013,10,28,03,39,8.70
2013,10,28,03,40,8.70
2013,10,28,03,41,8.70
2013,10,28,03,42,8.90
2013,10,28,03,43,8.90
2013,10,28,03,44,9.00
2013,10,28,03,45,9.10
2013,10,28,03,46,9.10
2013,10,28,03,47,9.10
2013,10,28,03,48,9.10
2013,10,28,03,49,9.00
2013,10,28,03,50,9.00
2013,10,28,03,51,8.90
2013,10,28,03,52,8.80
2013,10,28,03,53,8.80
2013,10,28,03,54,8.80
2013,10,28,03,55,8.70
2013,10,28,03,56,8.60
2013,10,28,03,57,8.60
2013,10,28,03,58,8.60
2013,10,28,03,59,8.60
2013,10,28,04,00,8.60
2013,10,28,04,01,8.60
2013,10,28,04,02,8.60
2013,10,28,04,03,8.60
2013,10,28,04,04,8.60
2013,10,28,04,05,8.60
2013,10,28,04,06,8.60
2013,10,28,04,07,8.60
2013,10,28,04,08,8.60
2013,10,28,04,09,8.70
2013,10,28,04,10,8.70
2013,10,28,04,11,8.70
2013,10,28,04,12,8.80
2013,10,28,04,13,8.90
2013,10,28,04,14,8.90
2013,10,28,04,15,8.90
2013,10,28,04,16,8.90
2013,10,28,04,17,8.90
2013,10,28,04,18,9.00
2013,10,28,04,19,9.00
2013,10,28,04,20,9.10
2013,10,28,04,21,9.10
2013,10,28,04,22,9.10
2013,10,28,04,23,9.00
2013,10,28,04,24,8.90
2013,10,28,04,25,8.80
2013,10,28,04,26,8.70
2013,10,28,04,27,8.60
2013,10,28,04,28,8.50
2013,10,28,04,29,8.50
2013,10,28,04,30,8.40
2013,10,28,04,31,8.30
2013,10,28,04,32,8.20
2013,10,28,04,33,8.10
2013,10,28,04,34,8.10
2013,10,28,04,35,8.00
2013,10,28,04,36,7.90
2013,10,28,04,37,7.80
2013,10,28,04,38,7.80
2013,10,28,04,39,7.80
2013,10,28,04,40,7.80
2013,10,28,04,41,7.70
2013,10,28,04,42,7.60
2013,10,28,04,43,7.50
2013,10,28,04,44,7.50
2013,10,28,04,45,7.50
2013,10,28,04,46,7.40
2013,10,28,04,47,7.30
2013,10,28,04,48,7.30
2013,10,28,04,49,7.20
2013,10,28,04,50,7.20
2013,10,28,04,51,7.10
2013,10,28,04,52,7.00
2013,10,28,04,53,7.00
2013,10,28,04,54,6.90
2013,10,28,04,55,6.90
2013,10,28,04,56,6.80
2013,10,28,04,57,6.70
2013,10,28,04,58,6.70
2013,10,28,04,59,6.70
2013,10,28,05,00,6.60
2013,10,28,05,01,6.60
2013,10,28,05,02,6.60
2013,10,28,05,03,6.60
2013,10,28,05,04,6.60
2013,10,28,05,05,6.60
2013,10,28,05,06,6.50
2013,10,28,05,07,6.50
2013,10,28,05,08,6.50
2013,10,28,05,09,6.50
2013,10,28,05,10,6.40
2013,10,28,05,11,6.40
2013,10,28,05,12,6.40
2013,10,28,05,13,6.40
2013,10,28,05,14,6.50
2013,10,28,05,15,6.50
2013,10,28,05,16,6.40
2013,10,28,05,17,6.40
2013,10,28,05,18,6.40
2013,10,28,05,19,6.50
2013,10,28,05,20,6.50
2013,10,28,05,21,6.60
2013,10,28,05,22,6.60
2013,10,28,05,23,6.60
2013,10,28,05,24,6.70
2013,10,28,05,25,6.70
2013,10,28,05,26,6.70
2013,10,28,05,27,6.70
2013,10,28,05,28,6.70
2013,10,28,05,29,6.70
2013,10,28,05,30,6.70
2013,10,28,05,31,6.60
2013,10,28,05,32,6.60
2013,10,28,05,33,6.50
2013,10,28,05,34,6.50
2013,10,28,05,35,6.40
2013,10,28,05,36,6.40
2013,10,28,05,37,6.40
2013,10,28,05,38,6.40
2013,10,28,05,39,6.50
2013,10,28,05,40,6.70
2013,10,28,05,41,6.80
2013,10,28,05,42,6.90
2013,10,28,05,43,7.00
2013,10,28,05,44,7.10
2013,10,28,05,45,7.20
2013,10,28,05,46,7.30
2013,10,28,05,47,7.40
2013,10,28,05,48,7.50
2013,10,28,05,49,7.60
2013,10,28,05,50,7.70
2013,10,28,05,51,7.70
2013,10,28,05,52,7.70
2013,10,28,05,53,7.80
2013,10,28,05,54,7.90
2013,10,28,05,55,8.10
2013,10,28,05,56,8.20
2013,10,28,05,57,8.40
2013,10,28,05,58,8.50
2013,10,28,05,59,8.80
2013,10,28,06,00,9.10
2013,10,28,06,01,9.30
2013,10,28,06,02,9.40
2013,10,28,06,03,9.50
2013,10,28,06,04,9.60
2013,10,28,06,05,9.70
2013,10,28,06,06,9.80
2013,10,28,06,07,9.90
2013,10,28,06,08,10.00
2013,10,28,06,09,10.00
2013,10,28,06,10,10.10
2013,10,28,06,11,10.30
2013,10,28,06,12,10.30
2013,10,28,06,13,10.40
2013,10,28,06,14,10.50
2013,10,28,06,15,10.60
2013,10,28,06,16,10.60
2013,10,28,06,17,10.70
2013,10,28,06,18,10.70
2013,10,28,06,19,10.70
2013,10,28,06,20,10.70
2013,10,28,06,21,10.60
2013,10,28,06,22,10.60
2013,10,28,06,23,10.50
2013,10,28,06,24,10.50
2013,10,28,06,25,10.40
2013,10,28,06,26,10.30
2013,10,28,06,27,10.30
2013,10,28,06,28,10.20
2013,10,28,06,29,10.10
2013,10,28,06,30,10.10
2013,10,28,06,31,10.00
2013,10,28,06,32,9.90
2013,10,28,06,33,9.90
2013,10,28,06,34,9.80
2013,10,28,06,35,9.80
2013,10,28,06,36,9.80
2013,10,28,06,37,9.80
2013,10,28,06,38,9.70
2013,10,28,06,39,9.80
2013,10,28,06,40,9.80
2013,10,28,06,41,9.80
2013,10,28,06,42,9.80
2013,10,28,06,43,9.80
2013,10,28,06,44,9.80
2013,10,28,06,45,9.80
2013,10,28,06,46,9.80
2013,10,28,06,47,9.80
2013,10,28,06,48,9.70
2013,10,28,06,49,9.70
2013,10,28,06,50,9.70
2013,10,28,06,51,9.70
2013,10,28,06,52,9.70
2013,10,28,06,53,9.70
2013,10,28,06,54,9.70
2013,10,28,06,55,9.70
2013,10,28,06,56,9.60
2013,10,28,06,57,9.60
2013,10,28,06,58,9.60
2013,10,28,06,59,9.60
2013,10,28,07,00,9.60
2013,10,28,07,01,9.60
2013,10,28,07,02,9.60
2013,10,28,07,03,9.60
2013,10,28,07,04,9.60
2013,10,28,07,05,9.60
2013,10,28,07,06,9.60
2013,10,28,07,07,9.50
2013,10,28,07,08,9.50
2013,10,28,07,09,9.50
2013,10,28,07,10,9.50
2013,10,28,07,11,9.50
2013,10,28,07,12,9.50
2013,10,28,07,13,9.50
2013,10,28,07,14,9.40
2013,10,28,07,15,9.40
2013,10,28,07,16,9.40
2013,10,28,07,17,9.40
2013,10,28,07,18,9.30
2013,10,28,07,19,9.30
2013,10,28,07,20,9.20
2013,10,28,07,21,9.10
2013,10,28,07,22,9.10
2013,10,28,07,23,9.00
2013,10,28,07,24,8.90
2013,10,28,07,25,8.80
2013,10,28,07,26,8.70
2013,10,28,07,27,8.60
2013,10,28,07,28,8.40
2013,10,28,07,29,8.30
2013,10,28,07,30,8.20
2013,10,28,07,31,8.10
2013,10,28,07,32,7.90
2013,10,28,07,33,7.80
2013,10,28,07,34,7.70
2013,10,28,07,35,8.00
2013,10,28,07,36,8.40
2013,10,28,07,37,8.60
2013,10,28,07,38,8.70
2013,10,28,07,39,8.70
2013,10,28,07,40,8.70
2013,10,28,07,41,8.60
2013,10,28,07,42,8.60
2013,10,28,07,43,8.50
2013,10,28,07,44,8.40
2013,10,28,07,45,8.30
2013,10,28,07,46,8.30
2013,10,28,07,47,8.30
2013,10,28,07,48,8.30
2013,10,28,07,49,8.30
2013,10,28,07,50,8.20
2013,10,28,07,51,8.10
2013,10,28,07,52,8.00
2013,10,28,07,53,7.90
2013,10,28,07,54,7.80
2013,10,28,07,55,7.70
2013,10,28,07,56,7.60
2013,10,28,07,57,7.50
2013,10,28,07,58,7.50
2013,10,28,07,59,7.40
2013,10,28,08,00,7.40
2013,10,28,08,01,7.40
2013,10,28,08,02,7.30
2013,10,28,08,03,7.30
2013,10,28,08,04,7.30
2013,10,28,08,05,7.40
2013,10,28,08,06,7.50
2013,10,28,08,07,7.60
2013,10,28,08,08,7.80
2013,10,28,08,09,8.00
2013,10,28,08,10,8.20
2013,10,28,08,11,8.50
2013,10,28,08,12,8.70
2013,10,28,08,13,8.80
2013,10,28,08,14,8.90
2013,10,28,08,15,9.00
2013,10,28,08,16,9.20
2013,10,28,08,17,9.40
2013,10,28,08,18,9.60
2013,10,28,08,19,9.70
2013,10,28,08,20,9.80
2013,10,28,08,21,9.90
2013,10,28,08,22,9.90
2013,10,28,08,23,9.80
2013,10,28,08,24,9.70
2013,10,28,08,25,9.70
2013,10,28,08,26,9.70
2013,10,28,08,27,9.80
2013,10,28,08,28,9.80
2013,10,28,08,29,9.80
2013,10,28,08,30,9.80
2013,10,28,08,31,9.80
2013,10,28,08,32,9.90
2013,10,28,08,33,9.90
2013,10,28,08,34,9.90
2013,10,28,08,35,9.90
2013,10,28,08,36,10.00
2013,10,28,08,37,10.00
2013,10,28,08,38,10.00
2013,10,28,08,39,10.00
2013,10,28,08,40,10.10
2013,10,28,08,41,10.10
2013,10,28,08,42,10.20
2013,10,28,08,43,10.20
2013,10,28,08,44,10.30
2013,10,28,08,45,10.40
2013,10,28,08,46,10.40
2013,10,28,08,47,10.50
2013,10,28,08,48,10.50
2013,10,28,08,49,10.50
2013,10,28,08,50,10.50
2013,10,28,08,51,10.50
2013,10,28,08,52,10.60
2013,10,28,08,53,10.60
2013,10,28,08,54,10.60
2013,10,28,08,55,10.60
2013,10,28,08,56,10.60
2013,10,28,08,57,10.60
2013,10,28,08,58,10.60
2013,10,28,08,59,10.60
2013,10,28,09,00,10.60
2013,10,28,09,01,10.60
2013,10,28,09,02,10.60
2013,10,28,09,03,10.60
2013,10,28,09,04,10.60
2013,10,28,09,05,10.60
2013,10,28,09,06,10.60
2013,10,28,09,07,10.60
2013,10,28,09,08,10.60
2013,10,28,09,09,10.70
2013,10,28,09,10,10.70
2013,10,28,09,11,10.70
2013,10,28,09,12,10.70
2013,10,28,09,13,10.70
2013,10,28,09,14,10.70
2013,10,28,09,15,10.80
2013,10,28,09,16,10.80
2013,10,28,09,17,10.80
2013,10,28,09,18,10.80
2013,10,28,09,19,10.80
2013,10,28,09,20,10.80
2013,10,28,09,21,10.90
2013,10,28,09,22,10.90
2013,10,28,09,23,10.90
2013,10,28,09,24,10.90
2013,10,28,09,25,11.00
2013,10,28,09,26,11.00
2013,10,28,09,27,11.00
2013,10,28,09,28,11.00
2013,10,28,09,29,11.00
2013,10,28,09,30,11.10
2013,10,28,09,31,11.10
2013,10,28,09,32,11.10
2013,10,28,09,33,11.10
2013,10,28,09,34,11.10
2013,10,28,09,35,11.10
2013,10,28,09,36,11.10
2013,10,28,09,37,11.10
2013,10,28,09,38,11.20
2013,10,28,09,39,11.20
2013,10,28,09,40,11.20
2013,10,28,09,41,11.20
2013,10,28,09,42,11.20
2013,10,28,09,43,11.20
2013,10,28,09,44,11.20
2013,10,28,09,45,11.20
2013,10,28,09,46,11.20
2013,10,28,09,47,11.30
2013,10,28,09,48,11.30
2013,10,28,09,49,11.30
2013,10,28,09,50,11.30
2013,10,28,09,51,11.30
2013,10,28,09,52,11.30
2013,10,28,09,53,11.30
2013,10,28,09,54,11.30
2013,10,28,09,55,11.30
2013,10,28,09,56,11.30
2013,10,28,09,57,11.30
2013,10,28,09,58,11.40
2013,10,28,09,59,11.40
2013,10,28,10,00,11.40
2013,10,28,10,01,11.40
2013,10,28,10,02,11.40
2013,10,28,10,03,11.40
2013,10,28,10,04,11.40
2013,10,28,10,05,11.40
2013,10,28,10,06,11.50
2013,10,28,10,07,11.50
2013,10,28,10,08,11.60
2013,10,28,10,09,11.50
2013,10,28,10,10,11.50
2013,10,28,10,11,11.50
2013,10,28,10,12,11.50
2013,10,28,10,13,11.60
2013,10,28,10,14,11.60
2013,10,28,10,15,11.60
2013,10,28,10,16,11.60
2013,10,28,10,17,11.60
2013,10,28,10,18,11.60
2013,10,28,10,19,11.60
2013,10,28,10,20,11.60
2013,10,28,10,21,11.50
2013,10,28,10,22,11.60
2013,10,28,10,23,11.60
2013,10,28,10,24,11.60
2013,10,28,10,25,11.60
2013,10,28,10,26,11.60
2013,10,28,10,27,11.60
2013,10,28,10,28,11.60
2013,10,28,10,29,11.70
2013,10,28,10,30,11.70
2013,10,28,10,31,11.70
2013,10,28,10,32,11.70
2013,10,28,10,33,11.70
2013,10,28,10,34,11.70
2013,10,28,10,35,11.70
2013,10,28,10,36,11.70
2013,10,28,10,37,11.70
2013,10,28,10,38,11.60
2013,10,28,10,39,11.60
2013,10,28,10,40,11.60
2013,10,28,10,41,11.60
2013,10,28,10,42,11.60
2013,10,28,10,43,11.60
2013,10,28,10,44,11.70
2013,10,28,10,45,11.70
2013,10,28,10,46,11.70
2013,10,28,10,47,11.70
2013,10,28,10,48,11.70
2013,10,28,10,49,11.80
2013,10,28,10,50,11.80
2013,10,28,10,51,11.80
2013,10,28,10,52,11.80
2013,10,28,10,53,11.90
2013,10,28,10,54,11.90
2013,10,28,10,55,11.90
2013,10,28,10,56,11.90
2013,10,28,10,57,11.90
2013,10,28,10,58,11.90
2013,10,28,10,59,11.90
2013,10,28,11,00,11.90
2013,10,28,11,01,11.90
2013,10,28,11,02,11.90
2013,10,28,11,03,11.90
2013,10,28,11,04,11.90
2013,10,28,11,05,11.90
2013,10,28,11,06,11.90
2013,10,28,11,07,11.90
2013,10,28,11,08,11.90
2013,10,28,11,09,12.00
2013,10,28,11,10,12.00
2013,10,28,11,11,12.00
2013,10,28,11,12,12.10
2013,10,28,11,13,12.10
2013,10,28,11,14,12.10
2013,10,28,11,15,12.10
2013,10,28,11,16,12.10
2013,10,28,11,17,12.10
2013,10,28,11,18,12.10
2013,10,28,11,19,12.10
2013,10,28,11,20,12.10
2013,10,28,11,21,12.10
2013,10,28,11,22,12.20
2013,10,28,11,23,12.20
2013,10,28,11,24,12.20
2013,10,28,11,25,12.20
2013,10,28,11,26,12.20
2013,10,28,11,27,12.10
2013,10,28,11,28,12.10
2013,10,28,11,29,12.10
2013,10,28,11,30,12.10
2013,10,28,11,31,12.10
2013,10,28,11,32,12.10
2013,10,28,11,33,12.10
2013,10,28,11,34,12.10
2013,10,28,11,35,12.10
2013,10,28,11,36,12.10
2013,10,28,11,37,12.10
2013,10,28,11,38,12.10
2013,10,28,11,39,12.10
2013,10,28,11,40,12.10
2013,10,28,11,41,12.20
2013,10,28,11,42,12.20
2013,10,28,11,43,12.20
2013,10,28,11,44,12.20
2013,10,28,11,45,12.20
2013,10,28,11,46,12.30
2013,10,28,11,47,12.30
2013,10,28,11,48,12.30
2013,10,28,11,49,12.30
2013,10,28,11,50,12.40
2013,10,28,11,51,12.40
2013,10,28,11,52,12.40
2013,10,28,11,53,12.40
2013,10,28,11,54,12.40
2013,10,28,11,55,12.40
2013,10,28,11,56,12.40
2013,10,28,11,57,12.40
2013,10,28,11,58,12.40
2013,10,28,11,59,12.40
2013,10,28,12,00,12.50
2013,10,28,12,01,12.50
2013,10,28,12,02,12.60
2013,10,28,12,03,12.60
2013,10,28,12,04,12.60
2013,10,28,12,05,12.70
2013,10,28,12,06,12.70
2013,10,28,12,07,12.70
2013,10,28,12,08,12.70
2013,10,28,12,09,12.70
2013,10,28,12,10,12.70
2013,10,28,12,11,12.70
2013,10,28,12,12,12.70
2013,10,28,12,13,12.60
2013,10,28,12,14,12.60
2013,10,28,12,15,12.60
2013,10,28,12,16,12.60
2013,10,28,12,17,12.60
2013,10,28,12,18,12.60
2013,10,28,12,19,12.60
2013,10,28,12,20,12.60
2013,10,28,12,21,12.60
2013,10,28,12,22,12.60
2013,10,28,12,23,12.70
2013,10,28,12,24,12.70
2013,10,28,12,25,12.70
2013,10,28,12,26,12.70
2013,10,28,12,27,12.70
2013,10,28,12,28,12.80
2013,10,28,12,29,12.80
2013,10,28,12,30,12.80
2013,10,28,12,31,12.80
2013,10,28,12,32,12.80
2013,10,28,12,33,12.80
2013,10,28,12,34,12.80
2013,10,28,12,35,12.80
2013,10,28,12,36,12.80
2013,10,28,12,37,12.80
2013,10,28,12,38,12.80
2013,10,28,12,39,12.90
2013,10,28,12,40,12.80
2013,10,28,12,41,12.80
2013,10,28,12,42,12.80
2013,10,28,12,43,12.80
2013,10,28,12,44,12.80
2013,10,28,12,45,12.90
2013,10,28,12,46,12.90
2013,10,28,12,47,12.80
2013,10,28,12,48,12.80
2013,10,28,12,49,12.80
2013,10,28,12,50,12.70
2013,10,28,12,51,12.70
2013,10,28,12,52,12.70
2013,10,28,12,53,12.70
2013,10,28,12,54,12.80
2013,10,28,12,55,12.80
2013,10,28,12,56,12.90
2013,10,28,12,57,12.90
2013,10,28,12,58,12.90
2013,10,28,12,59,12.90
2013,10,28,13,00,13.00
2013,10,28,13,01,13.10
2013,10,28,13,02,13.10
2013,10,28,13,03,13.20
2013,10,28,13,04,13.20
2013,10,28,13,05,13.30
2013,10,28,13,06,13.30
2013,10,28,13,07,13.30
2013,10,28,13,08,13.20
2013,10,28,13,09,13.20
2013,10,28,13,10,13.20
2013,10,28,13,11,13.10
2013,10,28,13,12,13.10
2013,10,28,13,13,13.10
2013,10,28,13,14,13.10
2013,10,28,13,15,13.00
2013,10,28,13,16,13.00
2013,10,28,13,17,12.90
2013,10,28,13,18,12.90
2013,10,28,13,19,12.90
2013,10,28,13,20,12.90
2013,10,28,13,21,13.00
2013,10,28,13,22,13.00
2013,10,28,13,23,13.10
2013,10,28,13,24,13.10
2013,10,28,13,25,13.10
2013,10,28,13,26,13.20
2013,10,28,13,27,13.20
2013,10,28,13,28,13.20
2013,10,28,13,29,13.20
2013,10,28,13,30,13.20
2013,10,28,13,31,13.20
2013,10,28,13,32,13.20
2013,10,28,13,33,13.20
2013,10,28,13,34,13.20
2013,10,28,13,35,13.30
2013,10,28,13,36,13.30
2013,10,28,13,37,13.30
2013,10,28,13,38,13.40
2013,10,28,13,39,13.40
2013,10,28,13,40,13.40
2013,10,28,13,41,13.40
2013,10,28,13,42,13.40
2013,10,28,13,43,13.30
2013,10,28,13,44,13.30
2013,10,28,13,45,13.20
2013,10,28,13,46,13.20
2013,10,28,13,47,13.20
2013,10,28,13,48,13.20
2013,10,28,13,49,13.20
2013,10,28,13,50,13.30
2013,10,28,13,51,13.30
2013,10,28,13,52,13.30
2013,10,28,13,53,13.40
2013,10,28,13,54,13.40
2013,10,28,13,55,13.50
2013,10,28,13,56,13.60
2013,10,28,13,57,13.50
2013,10,28,13,58,13.50
2013,10,28,13,59,13.50
2013,10,28,14,00,13.50
2013,10,28,14,01,13.50
2013,10,28,14,02,13.50
2013,10,28,14,03,13.40
2013,10,28,14,04,13.40
2013,10,28,14,05,13.30
2013,10,28,14,06,13.30
2013,10,28,14,07,13.30
2013,10,28,14,08,13.30
2013,10,28,14,09,13.30
2013,10,28,14,10,13.30
2013,10,28,14,11,13.30
2013,10,28,14,12,13.30
2013,10,28,14,13,13.30
2013,10,28,14,14,13.30
2013,10,28,14,15,13.30
2013,10,28,14,16,13.30
2013,10,28,14,17,13.40
2013,10,28,14,18,13.40
2013,10,28,14,19,13.40
2013,10,28,14,20,13.40
2013,10,28,14,21,13.40
2013,10,28,14,22,13.40
2013,10,28,14,23,13.50
2013,10,28,14,24,13.60
2013,10,28,14,25,13.60
2013,10,28,14,26,13.70
2013,10,28,14,27,13.70
2013,10,28,14,28,13.70
2013,10,28,14,29,13.60
2013,10,28,14,30,13.60
2013,10,28,14,31,13.60
2013,10,28,14,32,13.70
2013,10,28,14,33,13.70
2013,10,28,14,34,13.80
2013,10,28,14,35,13.80
2013,10,28,14,36,13.80
2013,10,28,14,37,13.70
2013,10,28,14,38,13.70
2013,10,28,14,39,13.70
2013,10,28,14,40,13.70
2013,10,28,14,41,13.70
2013,10,28,14,42,13.70
2013,10,28,14,43,13.70
2013,10,28,14,44,13.70
2013,10,28,14,45,13.70
2013,10,28,14,46,13.70
2013,10,28,14,47,13.70
2013,10,28,14,48,13.70
2013,10,28,14,49,13.70
2013,10,28,14,50,13.70
2013,10,28,14,51,13.70
2013,10,28,14,52,13.70
2013,10,28,14,53,13.60
2013,10,28,14,54,13.60
2013,10,28,14,55,13.70
2013,10,28,14,56,13.70
2013,10,28,14,57,13.70
2013,10,28,14,58,13.70
2013,10,28,14,59,13.80
2013,10,28,15,00,13.80
2013,10,28,15,01,13.80
2013,10,28,15,02,13.80
2013,10,28,15,03,13.90
2013,10,28,15,04,13.90
2013,10,28,15,05,13.90
2013,10,28,15,06,13.90
2013,10,28,15,07,14.00
2013,10,28,15,08,13.90
2013,10,28,15,09,13.90
2013,10,28,15,10,13.90
2013,10,28,15,11,14.00
2013,10,28,15,12,14.00
2013,10,28,15,13,14.00
2013,10,28,15,14,13.90
2013,10,28,15,15,13.90
2013,10,28,15,16,13.90
2013,10,28,15,17,13.90
2013,10,28,15,18,13.90
2013,10,28,15,19,13.90
2013,10,28,15,20,14.00
2013,10,28,15,21,14.00
2013,10,28,15,22,14.10
2013,10,28,15,23,14.10
2013,10,28,15,24,14.10
2013,10,28,15,25,14.20
2013,10,28,15,26,14.20
2013,10,28,15,27,14.20
2013,10,28,15,28,14.10
2013,10,28,15,29,14.00
2013,10,28,15,30,14.00
2013,10,28,15,31,13.90
2013,10,28,15,32,13.80
2013,10,28,15,33,13.80
2013,10,28,15,34,13.80
2013,10,28,15,35,13.70
2013,10,28,15,36,13.70
2013,10,28,15,37,13.70
2013,10,28,15,38,13.70
2013,10,28,15,39,13.70
2013,10,28,15,40,13.70
2013,10,28,15,41,13.70
2013,10,28,15,42,13.70
2013,10,28,15,43,13.70
2013,10,28,15,44,13.70
2013,10,28,15,45,13.70
2013,10,28,15,46,13.70
2013,10,28,15,47,13.70
2013,10,28,15,48,13.70
2013,10,28,15,49,13.70
2013,10,28,15,50,13.70
2013,10,28,15,51,13.60
2013,10,28,15,52,13.60
2013,10,28,15,53,13.60
2013,10,28,15,54,13.60
2013,10,28,15,55,13.60
2013,10,28,15,56,13.60
2013,10,28,15,57,13.60
2013,10,28,15,58,13.60
2013,10,28,15,59,13.70
2013,10,28,16,00,13.70
2013,10,28,16,01,13.70
2013,10,28,16,02,13.70
2013,10,28,16,03,13.60
2013,10,28,16,04,13.60
2013,10,28,16,05,13.60
2013,10,28,16,06,13.60
2013,10,28,16,07,13.60
2013,10,28,16,08,13.60
2013,10,28,16,09,13.50
2013,10,28,16,10,13.50
2013,10,28,16,11,13.50
2013,10,28,16,12,13.50
2013,10,28,16,13,13.50
2013,10,28,16,14,13.50
2013,10,28,16,15,13.50
2013,10,28,16,16,13.50
2013,10,28,16,17,13.50
2013,10,28,16,18,13.40
2013,10,28,16,19,13.40
2013,10,28,16,20,13.40
2013,10,28,16,21,13.40
2013,10,28,16,22,13.40
2013,10,28,16,23,13.40
2013,10,28,16,24,13.40
2013,10,28,16,25,13.40
2013,10,28,16,26,13.40
2013,10,28,16,27,13.40
2013,10,28,16,28,13.40
2013,10,28,16,29,13.40
2013,10,28,16,30,13.40
2013,10,28,16,31,13.40
2013,10,28,16,32,13.40
2013,10,28,16,33,13.40
2013,10,28,16,34,13.40
2013,10,28,16,35,13.40
2013,10,28,16,36,13.40
2013,10,28,16,37,13.40
2013,10,28,16,38,13.40
2013,10,28,16,39,13.40
2013,10,28,16,40,13.40
2013,10,28,16,41,13.40
2013,10,28,16,42,13.40
2013,10,28,16,43,13.40
2013,10,28,16,44,13.40
2013,10,28,16,45,13.40
2013,10,28,16,46,13.40
2013,10,28,16,47,13.40
2013,10,28,16,48,13.50
2013,10,28,16,49,13.50
2013,10,28,16,50,13.40
2013,10,28,16,51,13.40
2013,10,28,16,52,13.40
2013,10,28,16,53,13.40
2013,10,28,16,54,13.40
2013,10,28,16,55,13.40
2013,10,28,16,56,13.40
2013,10,28,16,57,13.30
2013,10,28,16,58,13.30
2013,10,28,16,59,13.30
2013,10,28,17,00,13.20
2013,10,28,17,01,13.10
2013,10,28,17,02,13.00
2013,10,28,17,03,13.00
2013,10,28,17,04,12.90
2013,10,28,17,05,12.80
2013,10,28,17,06,12.80
2013,10,28,17,07,12.70
2013,10,28,17,08,12.60
2013,10,28,17,09,12.60
2013,10,28,17,10,12.50
2013,10,28,17,11,12.40
2013,10,28,17,12,12.40
2013,10,28,17,13,12.30
2013,10,28,17,14,12.30
2013,10,28,17,15,12.30
2013,10,28,17,16,12.20
2013,10,28,17,17,12.10
2013,10,28,17,18,12.00
2013,10,28,17,19,11.90
2013,10,28,17,20,11.80
2013,10,28,17,21,11.70
2013,10,28,17,22,11.50
2013,10,28,17,23,11.40
2013,10,28,17,24,11.20
2013,10,28,17,25,11.10
2013,10,28,17,26,11.00
2013,10,28,17,27,10.90
2013,10,28,17,28,10.80
2013,10,28,17,29,10.70
2013,10,28,17,30,10.60
2013,10,28,17,31,10.50
2013,10,28,17,32,10.40
2013,10,28,17,33,10.30
2013,10,28,17,34,10.20
2013,10,28,17,35,10.20
2013,10,28,17,36,10.10
2013,10,28,17,37,10.00
2013,10,28,17,38,9.90